FW2969 Weather Reports


time (UTC)temp
F
wind
direction
speed
knots
gust
knots
rain 1hr
in
rain 24hr
in
rain mn
in
humidity
%
barometer
mb
20260506073059 52 223 0.0 7.0 0.00 0.39 0.00 81 1018.7
20260506071600 52 232 0.0 4.3 0.00 0.39 0.00 83 1018.7
20260506061547 50 290 0.0 3.5 0.00 0.63 0.00 90 1018.4
20260506044606 46 103 0.0 1.7 0.00 0.73 0.00 98 1018.1
20260506043031 45 103 0.0 0.9 0.00 0.73 0.00 98 1017.9
20260506041525 44 103 0.0 0.9 0.00 0.73 0.00 99 1017.5
20260506040028 43 103 0.0 1.7 0.00 0.73 0.00 98 1017.5
20260506034543 42 103 0.0 0.9 0.00 0.73 0.00 98 1017.2
20260506033020 42 103 0.0 0.9 0.00 0.73 0.00 98 1016.9
20260506031520 42 103 0.0 0.9 0.00 0.73 0.00 98 1016.7
20260506030018 41 103 0.0 1.7 0.00 0.73 0.00 98 1016.4
20260506024518 41 107 0.0 1.7 0.00 0.83 0.00 98 1016.2
20260506023017 42 107 0.0 1.7 0.00 0.83 0.00 98 1016.2
20260506021514 42 109 0.0 1.7 0.00 0.83 0.00 98 1016.0
20260506020013 42 110 0.0 0.9 0.00 0.83 0.00 98 1016.1
20260506014516 42 110 0.0 0.9 0.00 0.87 0.00 98 1016.0
20260506013013 42 110 0.0 0.0 0.00 0.87 0.00 98 1016.1
20260506011514 42 110 0.0 0.9 0.00 0.87 0.00 98 1016.0
20260506010012 42 110 0.0 2.6 0.00 0.87 0.00 98 1016.0
20260506004518 42 111 0.0 1.7 0.00 0.96 0.00 98 1016.0
20260506003009 43 111 0.0 1.7 0.00 0.96 0.00 98 1016.1
20260506001505 43 114 0.0 0.9 0.00 0.96 0.00 98 1016.0
20260506000004 43 114 0.0 0.0 0.00 0.96 0.00 98 1016.0
20260505234507 43 114 0.0 0.0 0.00 0.97 0.00 98 1016.1
20260505233114 44 114 0.0 2.6 0.00 0.97 0.00 98 1016.2
20260505231601 44 114 0.0 0.9 0.00 0.97 0.00 98 1016.2
20260505230057 44 114 0.0 0.0 0.00 0.97 0.00 98 1016.3
20260505224554 44 114 0.0 0.0 0.00 1.01 0.00 98 1016.3
20260505223053 45 114 0.0 0.0 0.00 1.01 0.00 98 1016.5
20260505221551 45 114 0.0 0.0 0.00 1.01 0.00 98 1016.6
20260505214559 45 114 0.0 0.0 0.00 1.03 0.00 98 1016.7
20260505213052 45 114 0.0 0.0 0.00 1.03 0.00 98 1016.7
20260505211552 45 114 0.0 0.0 0.00 1.03 0.00 98 1016.9
20260505210045 45 114 0.0 0.0 0.00 1.03 0.00 98 1017.0
20260505204546 46 114 0.0 0.0 0.00 1.08 1.03 98 1016.8
20260505203043 46 114 0.0 0.0 0.00 1.08 1.03 98 1016.9
20260505201543 46 114 0.0 0.0 0.01 1.08 1.03 98 1017.1
20260505200043 46 114 0.0 0.0 0.03 1.08 1.03 98 1017.1
20260505194545 46 114 0.0 0.0 0.03 1.12 1.03 98 1017.1
20260505193046 46 114 0.0 0.0 0.03 1.12 1.03 98 1017.1
20260505191551 46 114 0.0 0.0 0.02 1.12 1.02 98 1017.1
20260505190042 46 114 0.0 1.7 0.00 1.10 1.00 98 1017.1
20260505184538 46 255 0.0 0.9 0.00 1.11 1.00 98 1017.0
20260505183038 46 255 0.0 1.7 0.00 1.11 1.00 98 1016.9
20260505181536 46 223 0.0 3.5 0.00 1.11 1.00 98 1016.8
20260505180046 46 223 0.9 3.5 0.00 1.11 1.00 98 1016.6
20260505174539 46 280 0.0 3.5 0.00 1.17 1.00 98 1016.4
20260505173034 46 291 0.9 3.5 0.00 1.17 1.00 98 1016.3
20260505171534 46 282 0.0 3.5 0.01 1.17 1.00 98 1016.3
20260505170031 46 301 2.6 5.2 0.01 1.17 1.00 98 1016.0
20260505164527 47 250 2.6 7.0 0.01 1.19 1.00 98 1015.9
20260505163025 47 235 2.6 4.3 0.01 1.19 1.00 98 1015.6
20260505161523 47 227 1.7 12.2 0.00 1.18 0.99 98 1015.5
20260505153024 47 204 2.6 10.4 0.00 1.30 0.99 98 1015.4
20260505151521 47 233 1.7 7.8 0.00 1.30 0.99 98 1015.5
20260505124516 47 299 3.5 10.4 0.01 1.67 0.98 99 1014.9
20260505123011 47 255 3.5 13.0 0.01 1.67 0.98 99 1014.8
20260505121514 47 259 2.6 11.3 0.11 1.67 0.98 99 1015.0
20260505120011 47 309 4.3 15.6 0.11 1.67 0.98 99 1014.8
20260505114510 47 299 7.0 13.9 0.10 1.69 0.97 99 1014.7
20260505113008 47 206 6.1 12.2 0.10 1.69 0.97 99 1014.7
20260505111507 47 230 3.5 10.4 0.00 1.59 0.87 99 1014.3
20260505101504 46 227 4.3 8.7 0.04 1.69 0.87 98 1014.6
20260505100004 46 232 4.3 10.4 0.05 1.69 0.87 98 1014.7
20260505094503 46 206 2.6 10.4 0.03 1.73 0.84 99 1014.6
20260505093002 46 219 2.6 14.8 0.04 1.73 0.84 99 1014.7
20260505091559 46 178 3.5 14.8 0.05 1.72 0.83 98 1014.4
20260505090100 46 196 7.8 14.8 0.06 1.71 0.82 98 1014.5
20260505084557 46 217 7.0 16.5 0.13 1.70 0.81 98 1014.4
20260505083108 46 255 5.2 14.8 0.12 1.69 0.80 99 1014.4
20260505081557 46 194 5.2 15.6 0.10 1.66 0.77 99 1014.3
20260505080054 45 184 5.2 16.5 0.11 1.65 0.76 98 1014.2
20260505074552 46 209 7.8 16.5 0.10 1.75 0.68 98 1014.1